CMA CGM Thalassa — 5BNE2 — position and weather

sailwx.info

Track history (hours):
 
Tides and Currents Weather Stations Pressure Air Temp Water Temp Dewpoint Dewpoint Depression Visibility Wind Speed Wind Dir Waves Ship Positions

CMA CGM Thalassa

Last reported at 2014-Oct-30 11:19 UTC. Time now 2014-Oct-30 12:18 UTC.
Position N 38°31' W 010°04'.

Length 347 m; draft 14.3 m.

Type: Ship (hazmat cat A). MMSI: 212151000.

Date/timePositionNaut miles runAvg speedWind from/ knotsBaromVisibWave heightAir tempDewpointWater temp
2014-Oct-30 11:19N 38°31' W 010°04'53317.9
2014-Oct-29 05:32N 47°08' W 007°10'1818.8
2014-Oct-29 04:33N 47°25' W 006°58'21317.7
2014-Oct-28 16:34N 49°53' W 003°07'2622.2
2014-Oct-28 15:23N 50°01' W 002°29'2021.9
2014-Oct-28 14:29N 50°01' W 001°59'6020.0
2014-Oct-28 11:31N 49°39' W 000°33'1717.8
2014-Oct-28 10:32N 49°32' W 000°08'1212.1
2014-Oct-28 09:33N 49°27' E 000°09'1 0.8
2014-Oct-28 08:33N 49°27' E 000°10'0 0.0
2014-Oct-28 07:33N 49°27' E 000°10'0 0.0
2014-Oct-28 06:32N 49°27' E 000°10'0 0.0
2014-Oct-28 01:24N 49°27' E 000°10'0 0.0
2014-Oct-28 00:08N 49°27' E 000°10'0 0.0
2014-Oct-27 23:32N 49°27' E 000°10'0 0.0
2014-Oct-27 21:28N 49°27' E 000°10'0 0.0
2014-Oct-27 19:27N 49°27' E 000°10'0 0.0
2014-Oct-27 18:30N 49°27' E 000°10'0 0.0
2014-Oct-27 16:20N 49°27' E 000°10'1 0.8
2014-Oct-27 15:33N 49°27' E 000°09'1010.5
2014-Oct-27 14:33N 49°31' W 000°06'1616.0
2014-Oct-27 13:33N 49°40' W 000°27'4620.0
2014-Oct-27 11:14N 50°23' W 000°52'1218.0
2014-Oct-27 10:33N 50°35' W 000°55'1010.2
2014-Oct-27 09:34N 50°44' W 001°04'1111.4
2014-Oct-27 08:33N 50°50' W 001°19'7 6.6
2014-Oct-27 07:33N 50°54' W 001°27'0 0.0
2014-Oct-27 06:11N 50°54' W 001°27'0 0.0
2014-Oct-27 05:28N 50°54' W 001°27'0 0.0
2014-Oct-27 04:22N 50°54' W 001°27'0 0.0
2014-Oct-27 03:33N 50°54' W 001°27'0 0.0
2014-Oct-27 02:33N 50°54' W 001°27'0 0.0
2014-Oct-27 01:33N 50°54' W 001°27'0 0.0
2014-Oct-27 00:32N 50°54' W 001°27'0 0.0
2014-Oct-26 22:19N 50°54' W 001°27'0 0.0
2014-Oct-26 21:31N 50°54' W 001°27'0 0.0
2014-Oct-26 20:30N 50°54' W 001°27'0 0.0
2014-Oct-26 19:30N 50°54' W 001°27'0 0.0
2014-Oct-26 18:30N 50°54' W 001°27'0 0.0
2014-Oct-26 17:32N 50°54' W 001°27'0 0.0
2014-Oct-26 16:23N 50°54' W 001°27'0 0.0
2014-Oct-26 15:31N 50°54' W 001°27'0 0.0
2014-Oct-26 14:28N 50°54' W 001°27'0 0.0
2014-Oct-26 13:33N 50°54' W 001°27'0 0.0
2014-Oct-26 12:33N 50°54' W 001°27'0 0.2
2014-Oct-26 11:33N 50°54' W 001°26'6 6.4
2014-Oct-26 10:33N 50°50' W 001°19'7 7.1
2014-Oct-26 09:33N 50°46' W 001°10'1110.5
2014-Oct-26 08:33N 50°39' W 000°57'1313.4
2014-Oct-26 07:33N 50°29' W 000°44'1717.3
2014-Oct-26 06:34N 50°29' W 000°17'1918.3
2014-Oct-26 05:33N 50°32' E 000°12'1817.9
2014-Oct-26 04:34N 50°37' E 000°38'1616.0
2014-Oct-26 03:34N 50°46' E 000°59'1514.6
2014-Oct-26 02:34N 50°55' E 001°18'1312.7
2014-Oct-26 01:34N 51°04' E 001°32'1212.4
2014-Oct-26 00:34N 51°13' E 001°46'1414.0
2014-Oct-25 23:33N 51°24' E 001°59'1413.9
2014-Oct-25 22:33N 51°21' E 002°21'1614.9
2014-Oct-25 21:28N 51°24' E 002°46'1414.9
2014-Oct-25 20:33N 51°24' E 003°08'4 4.0
2014-Oct-25 19:32N 51°20' E 003°12'0 0.0
2014-Oct-25 18:31N 51°20' E 003°12'0 0.0
2014-Oct-25 17:28N 51°20' E 003°12'0 0.0
2014-Oct-25 16:34N 51°20' E 003°12'0 0.0
2014-Oct-25 15:30N 51°20' E 003°12'0 0.0
2014-Oct-25 14:30N 51°20' E 003°12'0 0.0
2014-Oct-25 13:32N 51°20' E 003°12'0 0.0
2014-Oct-25 12:20N 51°20' E 003°12'0 0.3
2014-Oct-25 11:34N 51°20' E 003°12'5 5.3
2014-Oct-25 10:33N 51°24' E 003°05'1211.4
2014-Oct-25 09:30N 51°36' E 003°10'2121.4
2014-Oct-25 08:32N 51°56' E 003°19'1717.6
2014-Oct-25 07:34N 52°03' E 003°45'1212.2
2014-Oct-25 06:33N 51°59' E 004°04'2 2.2
2014-Oct-25 05:32N 51°57' E 004°04'0 0.0
2014-Oct-25 04:28N 51°57' E 004°04'0 0.0
2014-Oct-25 03:28N 51°57' E 004°04'0 0.0
2014-Oct-25 02:31N 51°57' E 004°04'0 0.0
2014-Oct-25 01:33N 51°57' E 004°04'0 0.0
2014-Oct-25 00:33N 51°57' E 004°04'0 0.0
2014-Oct-24 23:32N 51°57' E 004°04'0 0.0
2014-Oct-24 22:32N 51°57' E 004°04'0 0.0
2014-Oct-24 21:31N 51°57' E 004°04'0 0.0
2014-Oct-24 20:31N 51°57' E 004°04'0 0.0
2014-Oct-24 19:31N 51°57' E 004°04'0 0.0
2014-Oct-24 18:32N 51°57' E 004°04'0 0.0
2014-Oct-24 17:31N 51°57' E 004°04'0 0.0
2014-Oct-24 16:31N 51°57' E 004°04'0 0.0
2014-Oct-24 15:31N 51°57' E 004°04'0 0.0
2014-Oct-24 14:33N 51°57' E 004°04'0 0.0
2014-Oct-24 13:31N 51°57' E 004°04'0 0.0
2014-Oct-24 12:31N 51°57' E 004°04'0 0.0
2014-Oct-24 11:34N 51°57' E 004°04'0 0.0
2014-Oct-24 10:33N 51°57' E 004°04'0 0.0
2014-Oct-24 09:33N 51°57' E 004°04'0 0.4
2014-Oct-24 08:34N 51°57' E 004°05'4 4.5
2014-Oct-24 07:33N 51°60' E 003°59'7 7.2
2014-Oct-24 06:34N 51°59' E 003°47'2 1.6
2014-Oct-24 05:34N 52°00' E 003°50'8 7.6
2014-Oct-24 04:33N 52°07' E 003°46'5 5.2
2014-Oct-24 03:33N 52°12' E 003°43'1 0.8
2014-Oct-24 02:33N 52°12' E 003°44'1 0.6
2014-Oct-24 01:33N 52°12' E 003°44'2 1.7
2014-Oct-24 00:34N 52°13' E 003°47'4 4.2
2014-Oct-23 23:33N 52°17' E 003°47'6 5.8
2014-Oct-23 22:34N 52°23' E 003°49'6 5.9
2014-Oct-23 21:33N 52°28' E 003°51'6 6.2
2014-Oct-23 20:32N 52°35' E 003°53'42 6.0
2014-Oct-23 13:31N 53°12' E 004°25'7 7.3
2014-Oct-23 12:33N 53°19' E 004°30'8 7.4
2014-Oct-23 11:30N 53°26' E 004°36'6 6.7
2014-Oct-23 10:33N 53°29' E 004°44'7 7.5
2014-Oct-23 09:33N 53°32' E 004°56'7 6.8
2014-Oct-23 08:33N 53°35' E 005°06'6 6.3
2014-Oct-23 07:34N 53°37' E 005°16'6 5.8
2014-Oct-23 06:34N 53°39' E 005°25'7 7.4
2014-Oct-23 05:34N 53°41' E 005°37'8 8.0
2014-Oct-23 04:33N 53°44' E 005°50'9 9.2
2014-Oct-23 03:33N 53°47' E 006°05'1010.2
2014-Oct-23 02:32N 53°50' E 006°22'42 9.9
2014-Oct-22 22:20N 53°59' E 007°30'6 7.7
2014-Oct-22 21:34N 53°59' E 007°40'12 8.5
2014-Oct-22 20:11N 53°52' E 007°56'711.9
2014-Oct-22 19:34N 53°49' E 008°07'1313.1
2014-Oct-22 18:34N 53°40' E 008°23'7 7.1
2014-Oct-22 17:31N 53°35' E 008°32'0 0.0
2014-Oct-22 16:28N 53°35' E 008°32'0 0.0
2014-Oct-22 15:33N 53°35' E 008°32'0 0.0
2014-Oct-22 14:33N 53°35' E 008°32'0 0.0
2014-Oct-22 13:32N 53°35' E 008°32'0 0.0
2014-Oct-22 12:32N 53°35' E 008°32'0 0.0
2014-Oct-22 11:32N 53°35' E 008°32'0 0.0
2014-Oct-22 10:31N 53°35' E 008°32'0 0.0
2014-Oct-22 09:31N 53°35' E 008°32'0 0.0
2014-Oct-22 08:33N 53°35' E 008°32'0 0.0
2014-Oct-22 07:33N 53°35' E 008°32'0 0.0
2014-Oct-22 06:32N 53°35' E 008°32'0 0.0
2014-Oct-22 05:32N 53°35' E 008°32'0 0.0
2014-Oct-22 04:32N 53°35' E 008°32'0 0.0
2014-Oct-22 03:31N 53°35' E 008°32'0 0.0
2014-Oct-22 02:31N 53°35' E 008°32'0 0.0
2014-Oct-22 01:33N 53°35' E 008°32'0 0.0
2014-Oct-22 00:33N 53°35' E 008°32'0 0.0
2014-Oct-21 23:32N 53°35' E 008°32'0 0.0
2014-Oct-21 22:32N 53°35' E 008°32'0 0.0
2014-Oct-21 21:32N 53°35' E 008°32'0 0.0
2014-Oct-21 20:31N 53°35' E 008°32'0 0.0
2014-Oct-21 19:31N 53°35' E 008°32'0 0.0
2014-Oct-21 18:33N 53°35' E 008°32'0 0.0
2014-Oct-21 17:33N 53°35' E 008°32'0 0.0
2014-Oct-21 16:32N 53°35' E 008°32'0 0.0
2014-Oct-21 15:32N 53°35' E 008°32'0 0.0
2014-Oct-21 14:31N 53°35' E 008°32'0 0.0
2014-Oct-21 13:31N 53°35' E 008°32'0 0.0
2014-Oct-21 12:31N 53°35' E 008°32'0 0.0
2014-Oct-21 11:33N 53°35' E 008°32'0 0.0
2014-Oct-21 10:33N 53°35' E 008°32'0 0.0
2014-Oct-21 09:32N 53°35' E 008°32'0 0.0
2014-Oct-21 08:32N 53°35' E 008°32'0 0.0
2014-Oct-21 07:33N 53°35' E 008°32'0 0.0
2014-Oct-21 06:31N 53°35' E 008°32'2 1.7
2014-Oct-21 05:33N 53°36' E 008°31'9 9.3
2014-Oct-21 04:33N 53°42' E 008°19'1414.5
2014-Oct-21 03:33N 53°51' E 007°60'1212.1
2014-Oct-21 02:33N 53°59' E 007°45'5 4.6
2014-Oct-21 01:33N 53°60' E 007°53'1211.6
2014-Oct-21 00:33N 54°00' E 008°13'1414.5
2014-Oct-20 23:33N 53°58' E 008°37'1312.7
2014-Oct-20 22:34N 53°51' E 008°55'1312.5
2014-Oct-20 21:33N 53°52' E 009°16'1212.5
2014-Oct-20 20:33N 53°43' E 009°29'1211.9
2014-Oct-20 19:33N 53°34' E 009°43'7 7.4
2014-Oct-20 18:33N 53°32' E 009°55'0 0.0
2014-Oct-20 17:32N 53°32' E 009°55'0 0.0
2014-Oct-20 16:25N 53°32' E 009°55'0 0.0
2014-Oct-20 15:31N 53°32' E 009°55'0 0.0
2014-Oct-20 14:31N 53°32' E 009°55'0 0.0
2014-Oct-20 13:24N 53°32' E 009°55'0 0.0
2014-Oct-20 12:30N 53°32' E 009°55'0 0.0
2014-Oct-20 11:29N 53°32' E 009°55'  
Track history (hours):
 
Tides and Currents Weather Stations Pressure Air Temp Water Temp Dewpoint Dewpoint Depression Visibility Wind Speed Wind Dir Waves Ship Positions

CMA CGM Thalassa

Last reported at 2014-Oct-30 11:19 UTC. Time now 2014-Oct-30 12:18 UTC.
Position N 38°31' W 010°04'.

Length 347 m; draft 14.3 m.

Type: Ship (hazmat cat A). MMSI: 212151000.

Date/timePositionNaut miles runAvg speedWind from/ knotsBaromVisibWave heightAir tempDewpointWater temp
2014-Oct-30 11:19N 38°31' W 010°04'53317.9
2014-Oct-29 05:32N 47°08' W 007°10'1818.8
2014-Oct-29 04:33N 47°25' W 006°58'21317.7
2014-Oct-28 16:34N 49°53' W 003°07'2622.2
2014-Oct-28 15:23N 50°01' W 002°29'2021.9
2014-Oct-28 14:29N 50°01' W 001°59'6020.0
2014-Oct-28 11:31N 49°39' W 000°33'1717.8
2014-Oct-28 10:32N 49°32' W 000°08'1212.1
2014-Oct-28 09:33N 49°27' E 000°09'1 0.8
2014-Oct-28 08:33N 49°27' E 000°10'0 0.0
2014-Oct-28 07:33N 49°27' E 000°10'0 0.0
2014-Oct-28 06:32N 49°27' E 000°10'0 0.0
2014-Oct-28 01:24N 49°27' E 000°10'0 0.0
2014-Oct-28 00:08N 49°27' E 000°10'0 0.0
2014-Oct-27 23:32N 49°27' E 000°10'0 0.0
2014-Oct-27 21:28N 49°27' E 000°10'0 0.0
2014-Oct-27 19:27N 49°27' E 000°10'0 0.0
2014-Oct-27 18:30N 49°27' E 000°10'0 0.0
2014-Oct-27 16:20N 49°27' E 000°10'1 0.8
2014-Oct-27 15:33N 49°27' E 000°09'1010.5
2014-Oct-27 14:33N 49°31' W 000°06'1616.0
2014-Oct-27 13:33N 49°40' W 000°27'4620.0
2014-Oct-27 11:14N 50°23' W 000°52'1218.0
2014-Oct-27 10:33N 50°35' W 000°55'1010.2
2014-Oct-27 09:34N 50°44' W 001°04'1111.4
2014-Oct-27 08:33N 50°50' W 001°19'7 6.6
2014-Oct-27 07:33N 50°54' W 001°27'0 0.0
2014-Oct-27 06:11N 50°54' W 001°27'0 0.0
2014-Oct-27 05:28N 50°54' W 001°27'0 0.0
2014-Oct-27 04:22N 50°54' W 001°27'0 0.0
2014-Oct-27 03:33N 50°54' W 001°27'0 0.0
2014-Oct-27 02:33N 50°54' W 001°27'0 0.0
2014-Oct-27 01:33N 50°54' W 001°27'0 0.0
2014-Oct-27 00:32N 50°54' W 001°27'0 0.0
2014-Oct-26 22:19N 50°54' W 001°27'0 0.0
2014-Oct-26 21:31N 50°54' W 001°27'0 0.0
2014-Oct-26 20:30N 50°54' W 001°27'0 0.0
2014-Oct-26 19:30N 50°54' W 001°27'0 0.0
2014-Oct-26 18:30N 50°54' W 001°27'0 0.0
2014-Oct-26 17:32N 50°54' W 001°27'0 0.0
2014-Oct-26 16:23N 50°54' W 001°27'0 0.0
2014-Oct-26 15:31N 50°54' W 001°27'0 0.0
2014-Oct-26 14:28N 50°54' W 001°27'0 0.0
2014-Oct-26 13:33N 50°54' W 001°27'0 0.0
2014-Oct-26 12:33N 50°54' W 001°27'0 0.2
2014-Oct-26 11:33N 50°54' W 001°26'6 6.4
2014-Oct-26 10:33N 50°50' W 001°19'7 7.1
2014-Oct-26 09:33N 50°46' W 001°10'1110.5
2014-Oct-26 08:33N 50°39' W 000°57'1313.4
2014-Oct-26 07:33N 50°29' W 000°44'1717.3
2014-Oct-26 06:34N 50°29' W 000°17'1918.3
2014-Oct-26 05:33N 50°32' E 000°12'1817.9
2014-Oct-26 04:34N 50°37' E 000°38'1616.0
2014-Oct-26 03:34N 50°46' E 000°59'1514.6
2014-Oct-26 02:34N 50°55' E 001°18'1312.7
2014-Oct-26 01:34N 51°04' E 001°32'1212.4
2014-Oct-26 00:34N 51°13' E 001°46'1414.0
2014-Oct-25 23:33N 51°24' E 001°59'1413.9
2014-Oct-25 22:33N 51°21' E 002°21'1614.9
2014-Oct-25 21:28N 51°24' E 002°46'1414.9
2014-Oct-25 20:33N 51°24' E 003°08'4 4.0
2014-Oct-25 19:32N 51°20' E 003°12'0 0.0
2014-Oct-25 18:31N 51°20' E 003°12'0 0.0
2014-Oct-25 17:28N 51°20' E 003°12'0 0.0
2014-Oct-25 16:34N 51°20' E 003°12'0 0.0
2014-Oct-25 15:30N 51°20' E 003°12'0 0.0
2014-Oct-25 14:30N 51°20' E 003°12'0 0.0
2014-Oct-25 13:32N 51°20' E 003°12'0 0.0
2014-Oct-25 12:20N 51°20' E 003°12'0 0.3
2014-Oct-25 11:34N 51°20' E 003°12'5 5.3
2014-Oct-25 10:33N 51°24' E 003°05'1211.4
2014-Oct-25 09:30N 51°36' E 003°10'2121.4
2014-Oct-25 08:32N 51°56' E 003°19'1717.6
2014-Oct-25 07:34N 52°03' E 003°45'1212.2
2014-Oct-25 06:33N 51°59' E 004°04'2 2.2
2014-Oct-25 05:32N 51°57' E 004°04'0 0.0
2014-Oct-25 04:28N 51°57' E 004°04'0 0.0
2014-Oct-25 03:28N 51°57' E 004°04'0 0.0
2014-Oct-25 02:31N 51°57' E 004°04'0 0.0
2014-Oct-25 01:33N 51°57' E 004°04'0 0.0
2014-Oct-25 00:33N 51°57' E 004°04'0 0.0
2014-Oct-24 23:32N 51°57' E 004°04'0 0.0
2014-Oct-24 22:32N 51°57' E 004°04'0 0.0
2014-Oct-24 21:31N 51°57' E 004°04'0 0.0
2014-Oct-24 20:31N 51°57' E 004°04'0 0.0
2014-Oct-24 19:31N 51°57' E 004°04'0 0.0
2014-Oct-24 18:32N 51°57' E 004°04'0 0.0
2014-Oct-24 17:31N 51°57' E 004°04'0 0.0
2014-Oct-24 16:31N 51°57' E 004°04'0 0.0
2014-Oct-24 15:31N 51°57' E 004°04'0 0.0
2014-Oct-24 14:33N 51°57' E 004°04'0 0.0
2014-Oct-24 13:31N 51°57' E 004°04'0 0.0
2014-Oct-24 12:31N 51°57' E 004°04'0 0.0
2014-Oct-24 11:34N 51°57' E 004°04'0 0.0
2014-Oct-24 10:33N 51°57' E 004°04'0 0.0
2014-Oct-24 09:33N 51°57' E 004°04'0 0.4
2014-Oct-24 08:34N 51°57' E 004°05'4 4.5
2014-Oct-24 07:33N 51°60' E 003°59'7 7.2
2014-Oct-24 06:34N 51°59' E 003°47'2 1.6
2014-Oct-24 05:34N 52°00' E 003°50'8 7.6
2014-Oct-24 04:33N 52°07' E 003°46'5 5.2
2014-Oct-24 03:33N 52°12' E 003°43'1 0.8
2014-Oct-24 02:33N 52°12' E 003°44'1 0.6
2014-Oct-24 01:33N 52°12' E 003°44'2 1.7
2014-Oct-24 00:34N 52°13' E 003°47'4 4.2
2014-Oct-23 23:33N 52°17' E 003°47'6 5.8
2014-Oct-23 22:34N 52°23' E 003°49'6 5.9
2014-Oct-23 21:33N 52°28' E 003°51'6 6.2
2014-Oct-23 20:32N 52°35' E 003°53'42 6.0
2014-Oct-23 13:31N 53°12' E 004°25'7 7.3
2014-Oct-23 12:33N 53°19' E 004°30'8 7.4
2014-Oct-23 11:30N 53°26' E 004°36'6 6.7
2014-Oct-23 10:33N 53°29' E 004°44'7 7.5
2014-Oct-23 09:33N 53°32' E 004°56'7 6.8
2014-Oct-23 08:33N 53°35' E 005°06'6 6.3
2014-Oct-23 07:34N 53°37' E 005°16'6 5.8
2014-Oct-23 06:34N 53°39' E 005°25'7 7.4
2014-Oct-23 05:34N 53°41' E 005°37'8 8.0
2014-Oct-23 04:33N 53°44' E 005°50'9 9.2
2014-Oct-23 03:33N 53°47' E 006°05'1010.2
2014-Oct-23 02:32N 53°50' E 006°22'42 9.9
2014-Oct-22 22:20N 53°59' E 007°30'6 7.7
2014-Oct-22 21:34N 53°59' E 007°40'12 8.5
2014-Oct-22 20:11N 53°52' E 007°56'711.9
2014-Oct-22 19:34N 53°49' E 008°07'1313.1
2014-Oct-22 18:34N 53°40' E 008°23'7 7.1
2014-Oct-22 17:31N 53°35' E 008°32'0 0.0
2014-Oct-22 16:28N 53°35' E 008°32'0 0.0
2014-Oct-22 15:33N 53°35' E 008°32'0 0.0
2014-Oct-22 14:33N 53°35' E 008°32'0 0.0
2014-Oct-22 13:32N 53°35' E 008°32'0 0.0
2014-Oct-22 12:32N 53°35' E 008°32'0 0.0
2014-Oct-22 11:32N 53°35' E 008°32'0 0.0
2014-Oct-22 10:31N 53°35' E 008°32'0 0.0
2014-Oct-22 09:31N 53°35' E 008°32'0 0.0
2014-Oct-22 08:33N 53°35' E 008°32'0 0.0
2014-Oct-22 07:33N 53°35' E 008°32'0 0.0
2014-Oct-22 06:32N 53°35' E 008°32'0 0.0
2014-Oct-22 05:32N 53°35' E 008°32'0 0.0
2014-Oct-22 04:32N 53°35' E 008°32'0 0.0
2014-Oct-22 03:31N 53°35' E 008°32'0 0.0
2014-Oct-22 02:31N 53°35' E 008°32'0 0.0
2014-Oct-22 01:33N 53°35' E 008°32'0 0.0
2014-Oct-22 00:33N 53°35' E 008°32'0 0.0
2014-Oct-21 23:32N 53°35' E 008°32'0 0.0
2014-Oct-21 22:32N 53°35' E 008°32'0 0.0
2014-Oct-21 21:32N 53°35' E 008°32'0 0.0
2014-Oct-21 20:31N 53°35' E 008°32'0 0.0
2014-Oct-21 19:31N 53°35' E 008°32'0 0.0
2014-Oct-21 18:33N 53°35' E 008°32'0 0.0
2014-Oct-21 17:33N 53°35' E 008°32'0 0.0
2014-Oct-21 16:32N 53°35' E 008°32'0 0.0
2014-Oct-21 15:32N 53°35' E 008°32'0 0.0
2014-Oct-21 14:31N 53°35' E 008°32'0 0.0
2014-Oct-21 13:31N 53°35' E 008°32'0 0.0
2014-Oct-21 12:31N 53°35' E 008°32'0 0.0
2014-Oct-21 11:33N 53°35' E 008°32'0 0.0
2014-Oct-21 10:33N 53°35' E 008°32'0 0.0
2014-Oct-21 09:32N 53°35' E 008°32'0 0.0
2014-Oct-21 08:32N 53°35' E 008°32'0 0.0
2014-Oct-21 07:33N 53°35' E 008°32'0 0.0
2014-Oct-21 06:31N 53°35' E 008°32'2 1.7
2014-Oct-21 05:33N 53°36' E 008°31'9 9.3
2014-Oct-21 04:33N 53°42' E 008°19'1414.5
2014-Oct-21 03:33N 53°51' E 007°60'1212.1
2014-Oct-21 02:33N 53°59' E 007°45'5 4.6
2014-Oct-21 01:33N 53°60' E 007°53'1211.6
2014-Oct-21 00:33N 54°00' E 008°13'1414.5
2014-Oct-20 23:33N 53°58' E 008°37'1312.7
2014-Oct-20 22:34N 53°51' E 008°55'1312.5
2014-Oct-20 21:33N 53°52' E 009°16'1212.5
2014-Oct-20 20:33N 53°43' E 009°29'1211.9
2014-Oct-20 19:33N 53°34' E 009°43'7 7.4
2014-Oct-20 18:33N 53°32' E 009°55'0 0.0
2014-Oct-20 17:32N 53°32' E 009°55'0 0.0
2014-Oct-20 16:25N 53°32' E 009°55'0 0.0
2014-Oct-20 15:31N 53°32' E 009°55'0 0.0
2014-Oct-20 14:31N 53°32' E 009°55'0 0.0
2014-Oct-20 13:24N 53°32' E 009°55'0 0.0
2014-Oct-20 12:30N 53°32' E 009°55'0 0.0
2014-Oct-20 11:29N 53°32' E 009°55'  

Dump ship's entire track history